Terminal Aerodrome Forecast
Issued by NWS

Home | Current Version | Previous Version | Text Only | Print | Product List | Glossary On
Versions: 1 2 3 4 5 6 7 8 9 10 11 12 13 14 15 16 17 18 19 20 21 22 23 24 25 26 27 28 29 30 31 32 33
000
FTAK31 PANC 032006 AAA
TAFAEN
TAF AMD
PAEN 032006Z 0320/0418 10005KT P6SM -RA FEW008 BKN060 OVC080
      TEMPO 0320/0323 BKN008
     FM032300 20008KT P6SM -RA FEW008 OVC040
     FM040600 03011KT P6SM VCSH BKN045 WS020/09030KT
     FM041500 02012KT 6SM -RA BR SCT010 BKN035=

USA.gov is the U.S. government's official web portal to all federal, state and local government web resources and services.